Cavalier, ND

5:33 AM CST on November 19, 2017 (GMT -0600)
Cavalier

Weather History for K2C8 - January, 2014

Change the Weather History Date:

Wednesday, January 1, 2014

  Actual Average (KGAF) Record (KGAF)
Temperature  
Mean Temperature -14 °F -  
Max Temperature -9 °F 12 °F 39 °F (1954)
Min Temperature -20 °F -4 °F -33 °F (1974)
Degree Days  
Heating Degree Days 80    
Moisture  
Dew Point -21 °F    
Average Humidity 74    
Maximum Humidity 84    
Minimum Humidity 65    
Precipitation  
Precipitation 0.00 in - - ()
Sea Level Pressure  
Sea Level Pressure 30.48 in    
Wind  
Wind Speed 3 mph (South)    
Max Wind Speed 8 mph    
Max Gust Speed -    
Visibility 10 miles    
Events      
Averages and records for this station are not official NWS values.
T = Trace of Precipitation, MM = Missing Value Source: NWS Daily Summary

Daily Weather History Graph

Daily Weather History Graph

Search for Another Location

Airport or City:

Trip Planner

Search our weather history database for the weather conditions in past years. The results will help you decide how hot, cold, wet, or windy it might be!

Date:

Astronomy

Jan. 01, 2014 Rise Set
Actual Time 8:23 AM CST 4:44 PM CST
Civil Twilight 7:46 AM CST 5:21 PM CST
Nautical Twilight 7:06 AM CST 6:02 PM CST
Astronomical Twilight 6:28 AM CST 6:40 PM CST
Moon 8:09 AM CST (1/1) 5:38 PM CST (1/1)
Length of Visible Light 9h 35m
Length of Day
8h 21m
New Moon, 0% of the Moon is Illuminated
Jan 1
New Moon
Jan 7
First Quarter
Jan 15
Full
Jan 23
Last Quarter
Jan 30
New

Hourly Weather History & Observations

Time (CST) Temp. Windchill Dew Point Humidity Pressure Visibility Wind Dir Wind Speed Gust Speed Precip Events Conditions
12:15 AM -16.6 °F - -22.0 °F 76% 30.45 in 10.0 mi Calm Calm - N/A   Clear
12:35 AM -16.6 °F - -22.0 °F 76% 30.45 in 10.0 mi Calm Calm - N/A   Clear
12:55 AM -16.6 °F - -22.0 °F 76% 30.45 in 10.0 mi Calm Calm - N/A   Clear
1:15 AM -16.6 °F - -22.0 °F 76% 30.45 in 10.0 mi Calm Calm - N/A   Clear
1:35 AM -16.6 °F -26.8 °F -22.0 °F 76% 30.45 in 10.0 mi SSW 3.5 mph - N/A   Clear
1:55 AM -16.6 °F -29.3 °F -22.0 °F 76% 30.45 in 10.0 mi South 4.6 mph - N/A   Clear
2:15 AM -14.8 °F - -22.0 °F 70% 30.45 in 10.0 mi Calm Calm - N/A   Clear
2:35 AM -16.6 °F -26.8 °F -22.0 °F 76% 30.46 in 10.0 mi SSE 3.5 mph - N/A   Clear
2:55 AM -16.6 °F - -22.0 °F 76% 30.45 in 10.0 mi Calm Calm - N/A   Clear
3:15 AM -14.8 °F -24.8 °F -22.0 °F 70% 30.46 in 10.0 mi ESE 3.5 mph - N/A   Clear
3:35 AM -14.8 °F - -22.0 °F 70% 30.46 in 10.0 mi Calm Calm - N/A   Clear
3:55 AM -16.6 °F -26.8 °F -22.0 °F 76% 30.46 in 10.0 mi ESE 3.5 mph - N/A   Clear
4:15 AM -16.6 °F -26.8 °F -22.0 °F 76% 30.46 in 10.0 mi SE 3.5 mph - N/A   Clear
4:35 AM -16.6 °F -26.8 °F -22.0 °F 76% 30.46 in 10.0 mi SE 3.5 mph - N/A   Clear
4:55 AM -16.6 °F -26.8 °F -22.0 °F 76% 30.46 in 10.0 mi SE 3.5 mph - N/A   Clear
5:15 AM -16.6 °F -26.8 °F -22.0 °F 76% 30.45 in 10.0 mi SSE 3.5 mph - N/A   Clear
5:35 AM -16.6 °F -26.8 °F -22.0 °F 76% 30.45 in 10.0 mi SE 3.5 mph - N/A   Clear
5:55 AM -14.8 °F -24.8 °F -20.2 °F 77% 30.46 in 10.0 mi SSE 3.5 mph - N/A   Clear
6:15 AM -14.8 °F -27.2 °F -20.2 °F 77% 30.46 in 10.0 mi South 4.6 mph - N/A   Clear
6:35 AM -14.8 °F -24.8 °F -20.2 °F 77% 30.47 in 10.0 mi South 3.5 mph - N/A   Clear
6:55 AM -14.8 °F - -20.2 °F 77% 30.46 in 10.0 mi Calm Calm - N/A   Clear
7:15 AM -14.8 °F -24.8 °F -22.0 °F 70% 30.46 in 10.0 mi SE 3.5 mph - N/A   Clear
7:35 AM -16.6 °F - -22.0 °F 76% 30.47 in 10.0 mi Calm Calm - N/A   Clear
7:55 AM -16.6 °F -26.8 °F -22.0 °F 76% 30.48 in 10.0 mi South 3.5 mph - N/A   Clear
8:15 AM -14.8 °F -24.8 °F -22.0 °F 70% 30.49 in 10.0 mi South 3.5 mph - N/A   Clear
8:35 AM -16.6 °F -26.8 °F -22.0 °F 76% 30.49 in 10.0 mi South 3.5 mph - N/A   Clear
8:55 AM -14.8 °F - -22.0 °F 70% 30.50 in 10.0 mi Calm Calm - N/A   Clear
9:15 AM -14.8 °F - -20.2 °F 77% 30.51 in 10.0 mi Calm Calm - N/A   Clear
9:35 AM -14.8 °F -24.8 °F -20.2 °F 77% 30.51 in 10.0 mi South 3.5 mph - N/A   Clear
9:55 AM -13.0 °F -22.7 °F -20.2 °F 70% 30.51 in 10.0 mi South 3.5 mph - N/A   Clear
10:15 AM -13.0 °F -22.7 °F -20.2 °F 70% 30.52 in 10.0 mi South 3.5 mph - N/A   Clear
10:35 AM -13.0 °F -22.7 °F -20.2 °F 70% 30.52 in 10.0 mi SSE 3.5 mph - N/A   Clear
10:55 AM -13.0 °F -28.6 °F -20.2 °F 70% 30.52 in 10.0 mi South 6.9 mph - N/A   Clear
11:15 AM -13.0 °F -27.0 °F -20.2 °F 70% 30.52 in 10.0 mi South 5.8 mph - N/A   Clear
11:35 AM -11.2 °F -23.0 °F -18.4 °F 70% 30.52 in 10.0 mi South 4.6 mph - N/A   Clear
11:55 AM -11.2 °F -24.8 °F -18.4 °F 70% 30.52 in 10.0 mi South 5.8 mph - N/A   Clear
12:15 PM -11.2 °F -24.8 °F -18.4 °F 70% 30.51 in 7.0 mi South 5.8 mph - N/A   Clear
12:35 PM -9.4 °F -22.7 °F -18.4 °F 65% 30.50 in 8.0 mi South 5.8 mph - N/A   Clear
12:55 PM -9.4 °F -25.6 °F -16.6 °F 71% 30.50 in 10.0 mi South 8.1 mph - N/A   Clear
1:15 PM -9.4 °F -20.9 °F -18.4 °F 65% 30.50 in 10.0 mi South 4.6 mph - N/A   Clear
1:35 PM -9.4 °F -20.9 °F -16.6 °F 71% 30.49 in 10.0 mi South 4.6 mph - N/A   Clear
1:55 PM -9.4 °F -20.9 °F -16.6 °F 71% 30.48 in 10.0 mi South 4.6 mph - N/A   Clear
2:15 PM -9.4 °F -20.9 °F -16.6 °F 71% 30.49 in 10.0 mi South 4.6 mph - N/A   Clear
2:35 PM -9.4 °F -22.7 °F -16.6 °F 71% 30.48 in 10.0 mi South 5.8 mph - N/A   Clear
2:55 PM -9.4 °F -20.9 °F -16.6 °F 71% 30.48 in 10.0 mi South 4.6 mph - N/A   Clear
3:15 PM -9.4 °F -24.3 °F -16.6 °F 71% 30.48 in 10.0 mi South 6.9 mph - N/A   Clear
3:35 PM -9.4 °F -22.7 °F -16.6 °F 71% 30.48 in 10.0 mi South 5.8 mph - N/A   Clear
3:55 PM -9.4 °F -22.7 °F -16.6 °F 71% 30.48 in 10.0 mi South 5.8 mph - N/A   Clear
4:15 PM -9.4 °F -22.7 °F -16.6 °F 71% 30.49 in 10.0 mi South 5.8 mph - N/A   Clear
4:35 PM -9.4 °F - -16.6 °F 71% 30.49 in 10.0 mi Calm Calm - N/A   Clear
4:55 PM -11.2 °F - -18.4 °F 70% 30.49 in 10.0 mi Calm Calm - N/A   Clear
5:15 PM -11.2 °F - -18.4 °F 70% 30.49 in 10.0 mi Calm Calm - N/A   Clear
5:35 PM -11.2 °F - -16.6 °F 77% 30.49 in 10.0 mi Calm Calm - N/A   Clear
5:55 PM -13.0 °F -25.1 °F -18.4 °F 77% 30.49 in 10.0 mi SE 4.6 mph - N/A   Clear
6:15 PM -13.0 °F -27.0 °F -18.4 °F 77% 30.49 in 10.0 mi SSE 5.8 mph - N/A   Clear
6:35 PM -14.8 °F -24.8 °F -20.2 °F 77% 30.49 in 10.0 mi South 3.5 mph - N/A   Clear
6:55 PM -14.8 °F -27.2 °F -20.2 °F 77% 30.50 in 10.0 mi South 4.6 mph - N/A   Clear
7:15 PM -14.8 °F -27.2 °F -20.2 °F 77% 30.50 in 10.0 mi SSE 4.6 mph - N/A   Clear
7:35 PM -18.4 °F -33.4 °F -22.0 °F 84% 30.49 in 10.0 mi South 5.8 mph - N/A   Clear
7:55 PM -16.6 °F -29.3 °F -22.0 °F 76% 30.49 in 10.0 mi South 4.6 mph - N/A   Clear
8:15 PM -16.6 °F -29.3 °F -22.0 °F 76% 30.49 in 10.0 mi SSW 4.6 mph - N/A   Clear
8:35 PM -16.6 °F -26.8 °F -20.2 °F 84% 30.49 in 10.0 mi SW 3.5 mph - N/A   Clear
8:55 PM -18.4 °F -31.4 °F -22.0 °F 84% 30.48 in 10.0 mi SSW 4.6 mph - N/A   Clear
9:15 PM -16.6 °F -29.3 °F -22.0 °F 76% 30.48 in 10.0 mi SSW 4.6 mph - N/A   Clear
9:35 PM -16.6 °F -31.3 °F -22.0 °F 76% 30.48 in 10.0 mi SSW 5.8 mph - N/A   Clear
9:55 PM -16.6 °F -26.8 °F -20.2 °F 84% 30.48 in 10.0 mi South 3.5 mph - N/A   Clear
10:15 PM -18.4 °F -31.4 °F -22.0 °F 84% 30.47 in 10.0 mi South 4.6 mph - N/A   Clear
10:35 PM -20.2 °F -30.9 °F -25.6 °F 76% 30.47 in 10.0 mi SW 3.5 mph - N/A   Clear
10:55 PM -20.2 °F - -25.6 °F 76% 30.47 in 10.0 mi Calm Calm - N/A   Clear
11:15 PM -20.2 °F - -25.6 °F 76% 30.48 in 10.0 mi Calm Calm - N/A   Clear
11:35 PM -20.2 °F - -27.4 °F 69% 30.47 in 10.0 mi Calm Calm - N/A   Clear
11:55 PM -20.2 °F -30.9 °F -25.6 °F 76% 30.46 in 10.0 mi South 3.5 mph - N/A   Clear